Terminal Aerodrome Forecast
Issued by NWS

Home | Current Version | Previous Version | Text Only | Print | Product List | Glossary On
Versions: 1 2 3 4 5 6 7 8 9 10 11 12 13
000
FTUS45 KBYZ 231731
TAFLVM
TAF
KLVM 231731Z 2318/2418 27011KT P6SM SKC
     FM240000 25012G18KT P6SM VCTS SCT100CB
     FM240300 26011KT P6SM BKN100=

USA.gov is the U.S. government's official web portal to all federal, state and local government web resources and services.